TimeMST,TemperatureF,Dew PointF,Humidity,Sea Level PressureIn,VisibilityMPH,Wind Direction,Wind SpeedMPH,Gust SpeedMPH,PrecipitationIn,Events,Conditions,WindDirDegrees,DateUTC
12:53 AM,-7.1,-11.0,83,30.76,6.0,Calm,Calm,-,N/A,,Clear,0,2013-01-20 07:53:00
1:53 AM,-5.1,-11.0,76,30.74,6.0,Calm,Calm,-,N/A,,Haze,0,2013-01-20 08:53:00
2:53 AM,-6.0,-11.0,79,30.76,6.0,West,3.5,-,N/A,,Haze,260,2013-01-20 09:53:00
3:53 AM,-8.0,-11.0,86,30.77,5.0,Calm,Calm,-,N/A,,Clear,0,2013-01-20 10:53:00
4:53 AM,-8.0,-11.9,83,30.77,5.0,Calm,Calm,-,N/A,,Clear,0,2013-01-20 11:53:00
5:53 AM,-9.0,-13.0,83,30.79,6.0,Calm,Calm,-,N/A,,Clear,0,2013-01-20 12:53:00
6:53 AM,-9.9,-13.0,86,30.81,7.0,Calm,Calm,-,N/A,,Clear,0,2013-01-20 13:53:00
7:53 AM,-9.9,-14.1,82,30.84,3.0,Calm,Calm,-,N/A,,Clear,0,2013-01-20 14:53:00
8:53 AM,-6.0,-8.0,91,30.85,4.0,Calm,Calm,-,N/A,,Clear,0,2013-01-20 15:53:00
9:53 AM,-2.0,-2.0,100,30.83,4.0,Calm,Calm,-,N/A,,Clear,0,2013-01-20 16:53:00
10:53 AM,3.0,-2.0,80,30.81,6.0,Calm,Calm,-,N/A,,Haze,0,2013-01-20 17:53:00
11:53 AM,5.0,-2.0,73,30.77,7.0,East,4.6,-,N/A,,Clear,80,2013-01-20 18:53:00
12:53 PM,8.1,-0.9,67,30.72,8.0,East,3.5,-,N/A,,Clear,80,2013-01-20 19:53:00
1:53 PM,12.0,-0.0,59,30.66,8.0,Calm,Calm,-,N/A,,Clear,0,2013-01-20 20:53:00
2:53 PM,10.9,1.0,64,30.66,8.0,East,4.6,-,N/A,,Clear,90,2013-01-20 21:53:00
3:53 PM,9.0,-0.0,67,30.66,8.0,East,4.6,-,N/A,,Clear,90,2013-01-20 22:53:00
4:53 PM,8.1,-0.9,67,30.67,7.0,Calm,Calm,-,N/A,,Clear,0,2013-01-20 23:53:00
5:53 PM,5.0,-2.0,73,30.71,7.0,Calm,Calm,-,N/A,,Clear,0,2013-01-21 00:53:00
6:53 PM,1.9,-2.9,80,30.73,6.0,Calm,Calm,-,N/A,,Haze,0,2013-01-21 01:53:00
7:53 PM,-0.0,-2.9,88,30.75,5.0,Calm,Calm,-,N/A,,Clear,0,2013-01-21 02:53:00
8:53 PM,-0.9,-5.1,83,30.76,4.0,NW,3.5,-,N/A,,Clear,320,2013-01-21 03:53:00
9:53 PM,-2.0,-7.1,79,30.74,4.0,Calm,Calm,-,N/A,,Haze,0,2013-01-21 04:53:00
10:53 PM,-2.0,-6.0,83,30.73,3.0,Calm,Calm,-,N/A,,Clear,0,2013-01-21 05:53:00
11:53 PM,-0.0,-7.1,72,30.71,4.0,Calm,Calm,-,N/A,,Haze,0,2013-01-21 06:53:00